Home   Weather   Inuvik   Past weeks

Flag for Canada Past Weather in Inuvik, Northwest Territories, Canada — Yesterday and Last 2 Weeks

Now
10 °F

Overcast.


Feels Like: -5 °F
Forecast: 8 / 12 °F
Wind: 13 mph from West

Location: Inuvik

Current Time: Dec 11, 2016 at 1:12:02 am

Latest Report: Dec 11, 2016 at 12:00 am


Visibility: 15 mi

Pressure: 30.39 "Hg

Humidity: 92%

Dew Point: 9 °F

Location of InuvikLocation

Past Weather in Inuvik — Graph

°F

Inuvik Temperature Yesterday

Maximum temperature yesterday: 12 °F (at 8:00 pm)
Minimum temperature yesterday: -15 °F (at 12:00 am)
Average temperature yesterday: 1 °F

High & Low Weather Summary for the Past Weeks

 TemperatureHumidityPressure
High12 °F (Dec 10, 8:00 pm)92% (Dec 10, 5:52 pm)31.00 "Hg (Dec 10, 5:52 pm)
Low-31 °F (Dec 6, 10:00 pm)67% (Dec 6, 4:00 pm)28.05 "Hg (Dec 5, 12:00 am)
Average-13 °F78%29.63 "Hg
* Reported Nov 26 12:00 am — Dec 11 12:00 am, Inuvik, Weather by CustomWeather, © 2016

Note: Actual official high and low records may vary slightly from our data, if they occured in-between our weather recording intervals... More about our weather records

Advertising

Inuvik Weather History for the Previous 24 Hours

Scroll right to see more
 ConditionsComfort  
Time TempWeatherWind HumidityBarometerVisibility
12:00 am
Sun, Dec 11
10 °FOvercast.13 mph92%30.39 "Hg15 mi
11:00 pm
Sat, Dec 10
10 °FOvercast.7 mph92%30.41 "Hg15 mi
10:00 pm10 °FOvercast.9 mph92%30.43 "Hg15 mi
9:00 pm12 °FLight snow. Low clouds.12 mph85%30.43 "Hg4 mi
8:00 pm12 °FLight snow. Low clouds.8 mph85%30.45 "Hg6 mi
7:54 pm10 °FLight snow. Low clouds.7 mph92%30.45 "Hg6 mi
7:00 pm10 °FLight snow. Overcast.6 mph92%30.46 "Hg6 mi
6:03 pm10 °FLight snow. Low clouds.6 mph92%30.48 "Hg3 mi
5:52 pm10 °FLight snow. Low clouds.5 mph92%30.48 "Hg1 mi
5:00 pm10 °FLight snow. Low clouds.7 mph85%30.49 "Hg4 mi
4:00 pm9 °FLight snow. Low clouds.5 mph85%30.51 "Hg6 mi
3:00 pm7 °FLight snow. Low clouds.5 mph85%30.53 "Hg6 mi
2:00 pm5 °FLight snow. Low clouds.3 mph85%30.53 "Hg10 mi
1:00 pm3 °FLight snow. Low clouds.2 mph85%30.53 "Hg10 mi
12:00 pm0 °FOvercast.No wind84%30.52 "Hg10 mi
11:00 am-2 °FLight snow. Overcast.2 mph84%30.53 "Hg10 mi
10:00 am-2 °FLight snow. Overcast.2 mph77%30.52 "Hg10 mi
9:00 am-4 °FLight snow. Overcast.3 mph77%30.51 "Hg3 mi
8:46 am-4 °FLight snow. Overcast.5 mph77%30.51 "Hg2 mi
8:00 am-6 °FLight snow. Overcast.No wind84%30.52 "Hg10 mi
7:00 am-6 °FLight snow. Overcast.2 mph77%30.52 "Hg10 mi
6:00 am-8 °FLight snow. Overcast.2 mph84%30.51 "Hg10 mi
5:00 am-8 °FLight snow. Overcast.2 mph77%30.51 "Hg10 mi
4:00 am-9 °FLight snow. Overcast.5 mph77%30.50 "Hg10 mi
3:00 am-9 °FLight snow. Overcast.3 mph77%30.50 "Hg10 mi
2:00 am-11 °FLight snow. Overcast.2 mph76%30.50 "Hg5 mi
1:00 am-13 °FLight snow. Overcast.5 mph76%30.49 "Hg5 mi
Weather by CustomWeather, © 2016

See weather overviewHow to use our weather pages